Regional Weather Roundup
Issued by NWS

Home | Current Version | Previous Version | Graphics & Text | Print | Product List | Glossary On
Versions: 1 2 3 4 5 6 7 8 9 10 11 12 13 14 15 16 17 18 19 20 21 22 23 24 25 26 27 28 29 30 31 32 33 34 35 36 37 38 39 40 41 42 43 44 45 46 47 48 49 50
000
ASUS44 KMEG 272210
RWRTN
TENNESSEE HOURLY STATE WEATHER ROUNDUP
NATIONAL WEATHER SERVICE MEMPHIS TN
500 PM CDT MON JUL 27 2015

TNZ002-004-019-021-049-052-054-088>092-272300-
WEST TENNESSEE

CITY           SKY/WX    TMP DP  RH WIND       PRES   REMARKS
MEMPHIS INTL   FAIR      95  72  47 SW6       29.93S HX 103
NWS MEMPHIS      N/A     98 N/A N/A MISG        N/A
JACKSON        FAIR      95  73  48 W7        29.93F HX 104
DYERSBURG        N/A    N/A N/A N/A MISG        N/A
PARIS          SUNNY     91  75  59 SW6       29.93F HX 102
LEXINGTON      MOSUNNY   91  73  55 S5        29.93F HX 100
$$

TNZ008-025-027-028-033-062-065-066-272300-
NORTH MIDDLE TENNESSEE

CITY           SKY/WX    TMP DP  RH WIND       PRES   REMARKS
NASHVILLE      PTSUNNY   92  73  53 SW6       29.94F HX 100
CLARKSVILLE    PTSUNNY   91  74  57 SW7       29.92F HX 100
SMYRNA         FAIR      96  73  47 S6        29.94F HX 105
COOKEVILLE     SUNNY     95  75  52 CALM      29.97F HX 107
CROSSVILLE     FAIR      87  68  52 NW6       30.03F HX  90
$$

TNZ061-075-076-078-094-096-097-272300-
SOUTH MIDDLE TENNESSEE

CITY           SKY/WX    TMP DP  RH WIND       PRES   REMARKS
FAYETTEVILLE   SUNNY     90  66  45 W3        29.97S HX  92
TULLAHOMA      SUNNY     91  70  49 CALM      29.98F HX  97
WINCHESTER     SUNNY     91  70  49 W5        29.98S HX  97
MCMINNVILLE    SUNNY     91  73  55 VRB3      29.98S HX 100
COLUMBIA       MOSUNNY   93  75  55 SE3       29.93F HX 104
SHELBYVILLE    SUNNY     95  73  49 CALM      29.96F HX 105
$$

TNZ017-018-042-046-047-272300-
NORTHEAST TENNESSEE

CITY           SKY/WX    TMP DP  RH WIND       PRES   REMARKS
TRI CITIES     PTSUNNY   82  72  71 CALM      30.01S
ELIZABETHTON   PTCLDY    81  72  74 CALM      30.01S
$$

TNZ012-013-036-069-073-074-272300-
CENTRAL EAST TENNESSEE

CITY           SKY/WX    TMP DP  RH WIND       PRES   REMARKS
KNOXVILLE      CLOUDY    89  68  49 NW5       29.96S HX  93
OAK RIDGE      PTSUNNY   91  71  51 VRB5      29.97F HX  97
GATLINBURG       N/A     91  68  46 NW6       29.96S HX  95
MORRISTOWN     CLEAR     82  72  69 N5        30.01R
$$

TNZ083-085-099-272300-
SOUTHEAST TENNESSEE

CITY           SKY/WX    TMP DP  RH WIND       PRES   REMARKS
CHATTANOOGA    PTSUNNY   93  70  46 W3        29.94F HX  99
$$

SKY/WX REPORTED AS FAIR MEANS FEW OR NO CLOUDS BELOW
12 THOUSAND FEET.




USA.gov is the U.S. government's official web portal to all federal, state and local government web resources and services.